User: anonymous   Login
Location: Unspecified
(0.0000°N, 0.0000°E)
Time: 12:21:37
(UTC+02:00)
Language:

Iridium 33 - Orbit

View from above orbital plane
View from above orbital plane
View from above satellite
View from above satellite

Ground track
Ground track

The orbit data is extracted from the following two-line orbital elements,

1 24946U 97051C   15117.45479383  .00000396  00000-0  13652-3 0  9993
2 24946 086.3873 253.8365 0005782 268.8262 153.6483 14.33360924922053
Epoch (UTC): 27 April 2015 10:54:54
Eccentricity: 0.0005782
inclination: 86.3873°
perigee height: 776 km
apogee height: 784 km
right ascension of ascending node: 253.8365°
argument of perigee: 268.8262°
revolutions per day: 14.33360924
mean anomaly at epoch: 153.6483°
orbit number at epoch: 92205

The dashed part of the orbit path shows where the satellite is in the earth's shadow,  

DLR